Change the Weather History Date:

Tuesday, August 19, 2014

  Actual Average Record
Temperature  
Mean Temperature 72 °F 72 °F  
Max Temperature 85 °F 81 °F 100 °F (1955)
Min Temperature 59 °F 63 °F 47 °F (1964)
Degree Days  
Heating Degree Days 0 0  
Month to date heating degree days 8 0  
Since 1 June heating degree days 42 46  
Since 1 July heating degree days 22 4  
Cooling Degree Days 7 7  
Month to date cooling degree days 84 147  
Year to date cooling degree days 484 639  
Since 1 June cooling degree days 418 580  
Growing Degree Days 22 (Base 50)    
Moisture  
Dew Point 63 °F    
Average Humidity 72    
Maximum Humidity 93    
Minimum Humidity 51    
Precipitation  
Precipitation 0.48 in 0.11 in 1.35 in (2007)
Month to date precipitation 3.75 2.18  
Year to date precipitation 30.27 24.21  
Snow  
Snow 0.00 in 0.00 in - ()
Month to date snowfall 0.0 0.0  
Since 1 June snowfall 0.0 0.0  
Since 1 July snowfall 0.0 0.0  
Snow Depth 0.00 in    
Sea Level Pressure  
Sea Level Pressure 29.85 in    
Wind  
Wind Speed 6 mph (SSW)    
Max Wind Speed 32 mph    
Max Gust Speed 38 mph    
Visibility 9 miles    
Events Rain , Thunderstorm    
T = Trace of Precipitation, MM = Missing Value Source: NWS Daily Summary

Daily Weather History Graph

Daily Weather History Graph

Search for Another Location

Airport or City:

Trip Planner

Search our weather history database for the weather conditions in past years. The results will help you decide how hot, cold, wet, or windy it might be!

Date:

Astronomy

Aug. 19, 2014 Rise Set
Actual Time 6:40 AM EDT 8:20 PM EDT
Civil Twilight 6:11 AM EDT 8:50 PM EDT
Nautical Twilight 5:35 AM EDT 9:25 PM EDT
Astronomical Twilight 4:57 AM EDT 10:03 PM EDT
Moon 1:30 AM EDT (8/19) 4:17 PM EDT (8/19)
Length of Visible Light 14h 39m
Length of Day
13h 40m
Waning Crescent, 29% of the Moon is Illuminated
Aug 19
Waning Crescent
Aug 25
New
Sep 2
First Quarter
Sep 8
Full
Sep 15
Last Quarter

Hourly Weather History & Observations

Time (EDT) Temp. Heat Index Dew Point Humidity Pressure Visibility Wind Dir Wind Speed Gust Speed Precip Events Conditions
12:51 AM 66.2 °F - 55.4 °F 68% 29.88 in 10.0 mi Calm Calm - N/A   Scattered Clouds
1:51 AM 63.0 °F - 57.0 °F 81% 29.86 in 10.0 mi Calm Calm - N/A   Scattered Clouds
2:51 AM 62.1 °F - 55.9 °F 80% 29.85 in 10.0 mi Calm Calm - N/A   Scattered Clouds
3:51 AM 61.0 °F - 55.9 °F 83% 29.85 in 10.0 mi SSE 4.6 mph - N/A   Partly Cloudy
4:51 AM 61.0 °F - 55.9 °F 83% 29.84 in 10.0 mi South 3.5 mph - N/A   Partly Cloudy
5:51 AM 61.0 °F - 55.0 °F 81% 29.84 in 10.0 mi Calm Calm - N/A   Scattered Clouds
6:51 AM 59.0 °F - 55.0 °F 87% 29.85 in 10.0 mi Calm Calm - N/A   Scattered Clouds
7:51 AM 63.0 °F - 57.0 °F 81% 29.86 in 10.0 mi Calm Calm - N/A   Scattered Clouds
8:51 AM 68.0 °F - 57.9 °F 70% 29.86 in 10.0 mi South 6.9 mph - N/A   Scattered Clouds
9:51 AM 73.9 °F - 59.0 °F 59% 29.86 in 10.0 mi South 4.6 mph - N/A   Partly Cloudy
10:51 AM 78.1 °F - 60.1 °F 54% 29.86 in 10.0 mi SW 5.8 mph - N/A   Clear
11:51 AM 79.0 °F - 64.0 °F 60% 29.86 in 10.0 mi West 3.5 mph - N/A   Clear
1:51 PM 82.0 °F 84.1 °F 66.0 °F 58% 29.83 in 10.0 mi South 10.4 mph - N/A   Scattered Clouds
2:51 PM 84.0 °F 85.8 °F 64.9 °F 53% 29.82 in 10.0 mi SW 11.5 mph 19.6 mph N/A   Scattered Clouds
3:51 PM 84.0 °F 85.8 °F 64.9 °F 53% 29.81 in 10.0 mi SSW 11.5 mph 18.4 mph N/A   Scattered Clouds
4:51 PM 84.2 °F 86.6 °F 66.2 °F 55% 29.81 in 10.0 mi South 9.2 mph - N/A   Mostly Cloudy
5:51 PM 84.0 °F 86.5 °F 66.9 °F 56% 29.80 in 10.0 mi SSW 12.7 mph - N/A   Scattered Clouds
6:39 PM 82.0 °F 84.5 °F 66.9 °F 60% 29.82 in 10.0 mi SSW 9.2 mph - N/A Thunderstorm Thunderstorm
6:51 PM 77.0 °F - 66.9 °F 71% 29.80 in 8.0 mi SSW 10.4 mph 21.9 mph 0.00 in Rain , Thunderstorm Light Thunderstorms and Rain
7:02 PM 77.0 °F - 66.9 °F 71% 29.81 in 10.0 mi SSW 5.8 mph - 0.00 in   Mostly Cloudy
7:51 PM 75.9 °F - 70.0 °F 82% 29.81 in 7.0 mi SSE 4.6 mph - 0.00 in   Mostly Cloudy
8:05 PM 77.0 °F - 71.1 °F 82% 29.82 in 7.0 mi South 3.5 mph - N/A Thunderstorm Thunderstorm
8:15 PM 71.1 °F - 64.0 °F 78% 29.85 in 10.0 mi NNW 21.9 mph 33.4 mph N/A Thunderstorm Thunderstorm
8:23 PM 69.1 °F - 64.0 °F 84% 29.86 in 10.0 mi NW 23.0 mph 31.1 mph N/A Thunderstorm Thunderstorm
8:27 PM 69.1 °F - 64.0 °F 84% 29.86 in 10.0 mi NNW 20.7 mph 31.1 mph N/A Thunderstorm Thunderstorm
8:43 PM 68.0 °F - 64.9 °F 90% 29.88 in 1.2 mi NNW 13.8 mph 25.3 mph 0.00 in Rain , Thunderstorm Heavy Thunderstorms and Rain
8:49 PM 66.2 °F - 64.4 °F 94% 29.88 in 2.5 mi WNW 8.1 mph 19.6 mph 0.09 in Rain , Thunderstorm Thunderstorms and Rain
8:51 PM 66.9 °F - 64.9 °F 93% 29.86 in 2.5 mi WNW 8.1 mph 19.6 mph 0.12 in Rain , Thunderstorm Thunderstorms and Rain
9:01 PM 66.9 °F - 64.9 °F 93% 29.87 in 3.0 mi NE 3.5 mph 17.3 mph 0.23 in Rain , Thunderstorm Light Thunderstorms and Rain
9:10 PM 66.9 °F - 66.0 °F 97% 29.86 in 7.0 mi East 8.1 mph - 0.34 in Rain , Thunderstorm Light Thunderstorms and Rain
9:51 PM 66.9 °F - 66.0 °F 97% 29.87 in 10.0 mi SSE 4.6 mph - 0.36 in Thunderstorm Thunderstorm
10:08 PM 68.0 °F - 66.0 °F 93% 29.88 in 10.0 mi SSE 6.9 mph - N/A   Overcast
10:51 PM 68.0 °F - 64.4 °F 88% 29.86 in 10.0 mi SSE 6.9 mph - N/A   Overcast
11:51 PM 66.2 °F - 64.4 °F 94% 29.87 in 10.0 mi South 13.8 mph - N/A   Overcast